Regional Weather Roundup
Issued by NWS Cleveland, OH

Home | Current Version | Previous Version | Graphics & Text | Print | Product List | Glossary On
Versions: 1 2 3 4 5 6 7 8 9 10 11 12 13 14 15 16 17 18 19 20 21 22 23 24 25 26 27 28 29 30 31 32 33 34 35 36 37 38 39 40 41 42 43 44 45 46 47 48 49 50
350
ASUS41 KCLE 291102
RWRCLE
OHIO REGIONAL WEATHER ROUNDUP
NATIONAL WEATHER SERVICE CLEVELAND, OH
700 AM EDT FRI APR 29 2016

NOTE: "FAIR" INDICATES FEW OR NO CLOUDS BELOW 12,000 FEET WITH NO
SIGNIFICANT WEATHER AND/OR OBSTRUCTIONS TO VISIBILITY.

OHZ001>008-015>018-024>027-034-035-043-044-291200-
   NORTHWEST OHIO

CITY           SKY/WX    TMP DP  RH WIND       PRES   REMARKS
DEFIANCE       CLOUDY    47  37  68 VRB5      30.00F
FINDLAY        CLOUDY    45  39  79 NE10      29.98F
TOLEDO EXPRESS CLOUDY    45  34  65 NE7       30.00S
TOLEDO EXEC    CLOUDY    46  35  65 NE5       30.03R
LIMA           CLOUDY    44  43  96 N3        30.00R
$$

OHZ009>014-019>023-028>033-038-089-291200-
   NORTHEAST OHIO

CITY           SKY/WX    TMP DP  RH WIND       PRES   REMARKS
CLE-HOPKINS    LGT RAIN  48  45  89 CALM      30.00S FOG
CLE-LAKEFRONT  LGT RAIN  48  44  86 CALM      29.97F
CUY CO. ARPT   LGT RAIN  46  45  93 E6        29.98  FOG
LORAIN-ELYRIA  CLOUDY    45  43  93 NE3       29.98F FOG
ASHTABULA      CLOUDY    45  43  93 E3        29.99R
AKRON-CANTON   CLOUDY    46  43  89 E5        29.97S FOG
WOOSTER        CLOUDY    47  46  97 CALM      29.98R FOG
MANSFIELD      FOG       46  46 100 NW3       29.98R VSB 1/2
YOUNGSTOWN     DRIZZLE   45  44  97 E3        29.97S FOG
$$

OHZ042-051>053-060>062-070>072-077>081-291200-
  SOUTHWEST OHIO

CITY           SKY/WX    TMP DP  RH WIND       PRES   REMARKS
CINC-COVINGTON CLOUDY    55  54  96 SW3       30.01R FOG
CINC-LUNKEN    CLOUDY    56  53  90 NW5       30.01S
HAMILTON       CLOUDY    56  53  90 W3        30.02R FOG
DAYTON         FOG       48  48 100 NW7       30.02R VSB 1/2
WRIGHT-PAT AFB NOT AVBL
DAYTON GENERAL CLOUDY    52  50  93 W5        29.99S FOG
WILMINGTON     FOG       52  51  97 W6        30.00R VSB 1/2
$$

OHZ036-037-039>041-045>050-054>059-063>069-073>076-082>088-291200-
  CENTRAL AND SOUTHEAST OHIO

CITY           SKY/WX    TMP DP  RH WIND       PRES   REMARKS
COLUMBUS       CLOUDY    50  48  93 N6        29.98R FOG
OSU AIRPORT    CLOUDY    49  48  97 NW5       29.99R FOG
BOLTON FIELD   NOT AVBL
RICKENBACK AFB NOT AVBL
NEWARK         CLOUDY    54  49  83 W5        29.98R HAZE
MARION         FOG       46  45  96 N7        29.97F VSB 1/4
LANCASTER      CLOUDY    53  50  89 CALM      29.99R FOG
ZANESVILLE     CLOUDY    52  49  89 CALM      29.98R FOG
NEW PHILLY     CLOUDY    48  45  89 CALM      29.99R
$$




USA.gov is the U.S. government's official web portal to all federal, state and local government web resources and services.